Weather History for KFUL - September, 2012

Change the Weather History Date:

Sunday, September 23, 2012

  Actual Average Record
Temperature  
Mean Temperature 85 °F 72 °F  
Max Temperature 99 °F 83 °F 104 °F (2009)
Min Temperature 71 °F 62 °F 55 °F (2010)
Degree Days  
Heating Degree Days 0 0  
Month to date heating degree days 0 0  
Since 1 July heating degree days 16 0  
Cooling Degree Days 20 7  
Month to date cooling degree days 383 209  
Year to date cooling degree days 1650 1072  
Growing Degree Days 35 (Base 50)    
Moisture  
Dew Point 59 °F    
Average Humidity 46    
Maximum Humidity 68    
Minimum Humidity 24    
Precipitation  
Precipitation 0.00 in 0.01 in 0.02 in (2000)
Month to date precipitation T 0.14  
Year to date precipitation 3.54 9.88  
Since 1 July precipitation 0.01 0.23  
Snow  
Snow 0.00 in - - ()
Month to date snowfall 0.0  
Year to date snowfall 0.0  
Since 1 July snowfall 0.0  
Snow Depth 0.00 in    
Sea Level Pressure  
Sea Level Pressure 29.90 in    
Wind  
Wind Speed 2 mph (WSW)    
Max Wind Speed 12 mph    
Max Gust Speed 15 mph    
Visibility 10 miles    
Events      
T = Trace of Precipitation, MM = Missing Value Source: NWS Daily Summary

Daily Weather History Graph

Daily Weather History Graph

Search for Another Location

Airport or City:

Trip Planner

Search our weather history database for the weather conditions in past years. The results will help you decide how hot, cold, wet, or windy it might be!

Date:

Astronomy

Sep. 23, 2012 Rise Set
Actual Time 6:41 AM PDT 6:46 PM PDT
Civil Twilight 6:16 AM PDT 7:11 PM PDT
Nautical Twilight 5:47 AM PDT 7:40 PM PDT
Astronomical Twilight 5:17 AM PDT 8:09 PM PDT
Moon 2:37 PM PDT (9/23) 12:13 AM PDT (9/23)
Length of Visible Light 12h 55m
Length of Day
12h 05m
First Quarter, 61% of the Moon is Illuminated
Sep 23
First Quarter
Sep 29
Full
Oct 8
Last Quarter
Oct 15
New
Oct 21
First Quarter

Hourly Weather History & Observations

Time (PDT) Temp. Heat Index Dew Point Humidity Pressure Visibility Wind Dir Wind Speed Gust Speed Precip Events Conditions
12:53 AM 75.9 °F - 62.1 °F 62% 29.88 in 10.0 mi Calm Calm - N/A   Clear
1:53 AM 75.0 °F - 62.1 °F 64% 29.88 in 10.0 mi Calm Calm - N/A   Clear
2:53 AM 73.0 °F - 61.0 °F 66% 29.87 in 10.0 mi Calm Calm - N/A   Clear
3:53 AM 73.0 °F - 61.0 °F 66% 29.87 in 10.0 mi Calm Calm - N/A   Clear
4:53 AM 72.0 °F - 61.0 °F 68% 29.88 in 10.0 mi Calm Calm - N/A   Unknown
5:53 AM 72.0 °F - 61.0 °F 68% 29.89 in 10.0 mi Calm Calm - N/A   Unknown
6:53 AM 72.0 °F - 60.1 °F 66% 29.92 in 10.0 mi Calm Calm - N/A   Unknown
7:53 AM 73.9 °F - 62.1 °F 66% 29.93 in 9.0 mi Calm Calm - N/A   Unknown
8:53 AM 77.0 °F - 63.0 °F 62% 29.94 in 7.0 mi Calm Calm - N/A   Unknown
9:53 AM 84.0 °F 84.4 °F 61.0 °F 46% 29.94 in 10.0 mi Calm Calm - N/A   Clear
10:53 AM 88.0 °F 86.9 °F 57.9 °F 36% 29.94 in 10.0 mi Calm Calm - N/A   Unknown
11:53 AM 93.9 °F 92.6 °F 57.0 °F 29% 29.92 in 10.0 mi NW 3.5 mph - N/A   Clear
12:53 PM 97.0 °F 95.0 °F 55.0 °F 24% 29.91 in 10.0 mi Variable 3.5 mph - N/A   Clear
1:53 PM 93.0 °F 94.2 °F 63.0 °F 37% 29.89 in 10.0 mi SSW 10.4 mph - N/A   Clear
2:53 PM 95.0 °F 94.8 °F 60.1 °F 31% 29.89 in 10.0 mi SSW 6.9 mph - N/A   Clear
3:53 PM 98.1 °F 96.4 °F 55.0 °F 24% 29.88 in 10.0 mi Variable 4.6 mph - N/A   Clear
4:53 PM 93.9 °F - 52.0 °F 24% 29.88 in 10.0 mi Variable 5.8 mph - N/A   Clear
5:53 PM 91.0 °F 88.5 °F 53.1 °F 27% 29.88 in 10.0 mi Variable 3.5 mph - N/A   Clear
6:53 PM 87.1 °F 84.9 °F 53.1 °F 31% 29.89 in 10.0 mi WNW 6.9 mph - N/A   Clear
7:53 PM 82.9 °F 82.0 °F 55.0 °F 38% 29.90 in 10.0 mi Variable 3.5 mph - N/A   Clear
8:53 PM 80.1 °F 80.4 °F 57.0 °F 45% 29.91 in 10.0 mi Calm Calm - N/A   Unknown
9:53 PM 78.1 °F - 57.9 °F 50% 29.90 in 10.0 mi Calm Calm - N/A   Unknown
10:53 PM 77.0 °F - 59.0 °F 54% 29.90 in 10.0 mi Calm Calm - N/A   Unknown
11:53 PM 73.9 °F - 59.0 °F 59% 29.91 in 10.0 mi Calm Calm - N/A   Clear